Miscellaneous Local Product
Issued by NWS Hastings, NE

Home | Current Version | Previous Version | Text Only | Print | Product List | Glossary On
Versions: 1 2 3 4 5 6 7 8 9 10 11 12 13 14 15 16 17 18 19 20 21 22 23 24 25 26 27 28 29 30 31 32 33 34 35 36 37 38 39 40 41 42 43 44 45 46 47 48 49 50
000
AXUS43 KGID 261702
MISGRI

GID CWA HOURLY WEATHER ROUNDUP
NATIONAL WEATHER SERVICE HASTINGS NE
1200 PM CDT FRI MAY 26 2017

NOTE: "FAIR" INDICATES FEW OR NO CLOUDS BELOW 12,000 FEET WITH NO
SIGNIFICANT WEATHER AND/OR OBSTRUCTIONS TO VISIBILITY.

...SOUTH CENTRAL NEBRASKA...

CITY           SKY/WX    TMP DP  RH WIND       PRES   REMARKS
GRAND ISLAND   PTSUNNY   70  47  43 N13       29.88R
HASTINGS       SUNNY     69  46  43 N15       29.88R
KEARNEY        PTSUNNY   66  46  48 N16G22    29.89S
ORD            MOSUNNY   64  44  48 NW14G23   29.89R
YORK           MOSUNNY   70  48  46 N17       29.84R
AURORA         PTSUNNY   69  45  41 N14G20    29.86R
LEXINGTON      MOSUNNY   66  47  50 N12       29.91R
HOLDREGE       PTSUNNY   65  44  45 N12       29.90R
HEBRON         SUNNY     74  48  39 N14G22    29.81S

...NEBRASKA PANHANDLE...

CITY           SKY/WX    TMP DP  RH WIND       PRES   REMARKS
CHADRON        SUNNY     61  37  41 VRB3      29.93F
ALLIANCE       SUNNY     60  40  47 VRB5      29.94F
SCOTTSBLUFF    SUNNY     60  39  45 SW5       29.95F
SIDNEY         SUNNY     58  39  49 CALM      29.97F

...WESTERN AND NORTH CENTRAL NEBRASKA...

CITY           SKY/WX    TMP DP  RH WIND       PRES   REMARKS
VALENTINE      SUNNY     66  36  32 N10       29.91F
AINSWORTH      SUNNY     62  42  48 NW14      29.91S
ONEILL         CLOUDY    66  42  42 NW12      29.89R
BROKEN BOW     CLOUDY    68  42  38 N20       29.90R
IMPERIAL       SUNNY     63  45  51 NE12G17   29.95F
NORTH PLATTE   SUNNY     67  43  41 N13       29.93S
MCCOOK         SUNNY     67  46  47 N10       29.92S

...EASTERN NEBRASKA...

CITY           SKY/WX    TMP DP  RH WIND       PRES   REMARKS
NORFOLK        SUNNY     70  48  45 N14       29.82F
SO SIOUX CITY  PTSUNNY   69  53  56 NW15      29.81R
TEKAMAH        MOSUNNY   72  52  49 N12       29.79R
ALBION         SUNNY     69  47  45 NW14G21   29.86R
OMAHA EPPLEY   MOSUNNY   74  57  55 NW15      29.78R
OFFUTT AFB     SUNNY     74  58  58 N9        29.77R
MILLARD        PTSUNNY   74  56  54 N10G17    29.79S
LINCOLN        SUNNY     75  52  44 N13G20    29.82R
NEBRASKA CITY  SUNNY     77  55  45 NE8       29.78R
BEATRICE       SUNNY     76  57  51 N15       29.80R
FALLS CITY     SUNNY     79  61  53 N12       29.75R

...NORTHERN KANSAS...

CITY           SKY/WX    TMP DP  RH WIND       PRES   REMARKS
GOODLAND       SUNNY     63  47  55 NE8       29.95S
HILL CITY      SUNNY     71  51  49 N13       29.90S
NORTON         SUNNY     68  48  49 N7        29.90R
PHILLIPSBURG   SUNNY     72  48  43 N10       29.88S
SMITH CENTER   SUNNY     72  50  46 N12G18    29.86R
HAYS           SUNNY     70  55  59 N16       29.88R
RUSSELL        SUNNY     71  57  61 NE15      29.85R
CONCORDIA      SUNNY     74  58  57 N13G20    29.81R
SALINA         SUNNY     79  64  60 N12       29.79R
TOPEKA         MOSUNNY   79  66  64 NW6       29.74S



USA.gov is the U.S. government's official web portal to all federal, state and local government web resources and services.